﻿測定場所 (Monitoring sites),日付 (Measurement date),時間 (Measurement time),線量率 最大値 (max) μGy/h,線量率 最小値 (min) μGy/h,線量率 平均値 (average) μGy/h,
調布 (Chofu),2014-02-23,23:01～24:00,0.0346,0.0309,0.0326,
調布 (Chofu),2014-02-23,22:01～23:00,0.0357,0.0305,0.0324,
調布 (Chofu),2014-02-23,21:01～22:00,0.0349,0.0302,0.0323,
調布 (Chofu),2014-02-23,20:01～21:00,0.0343,0.0300,0.0320,
調布 (Chofu),2014-02-23,19:01～20:00,0.0341,0.0299,0.0322,
調布 (Chofu),2014-02-23,18:01～19:00,0.0337,0.0302,0.0318,
調布 (Chofu),2014-02-23,17:01～18:00,0.0337,0.0300,0.0320,
調布 (Chofu),2014-02-23,16:01～17:00,0.0337,0.0304,0.0321,
調布 (Chofu),2014-02-23,15:01～16:00,0.0344,0.0301,0.0324,
調布 (Chofu),2014-02-23,14:01～15:00,0.0336,0.0303,0.0320,
調布 (Chofu),2014-02-23,13:01～14:00,0.0344,0.0301,0.0325,
調布 (Chofu),2014-02-23,12:01～13:00,0.0350,0.0308,0.0325,
調布 (Chofu),2014-02-23,11:01～12:00,0.0348,0.0309,0.0326,
調布 (Chofu),2014-02-23,10:01～11:00,0.0352,0.0312,0.0330,
調布 (Chofu),2014-02-23,09:01～10:00,0.0345,0.0294,0.0331,
調布 (Chofu),2014-02-23,08:01～09:00,0.0345,0.0307,0.0329,
調布 (Chofu),2014-02-23,07:01～08:00,0.0347,0.0303,0.0330,
調布 (Chofu),2014-02-23,06:01～07:00,0.0348,0.0308,0.0327,
調布 (Chofu),2014-02-23,05:01～06:00,0.0344,0.0306,0.0325,
調布 (Chofu),2014-02-23,04:01～05:00,0.0344,0.0303,0.0327,
調布 (Chofu),2014-02-23,03:01～04:00,0.0342,0.0307,0.0323,
調布 (Chofu),2014-02-23,02:01～03:00,0.0343,0.0303,0.0323,
調布 (Chofu),2014-02-23,01:01～02:00,0.0340,0.0302,0.0319,
調布 (Chofu),2014-02-23,00:01～01:00,0.0339,0.0305,0.0321,
調布 (Chofu),2014-02-22,23:01～24:00,0.0337,0.0301,0.0319,
調布 (Chofu),2014-02-22,22:01～23:00,0.0343,0.0306,0.0322,
調布 (Chofu),2014-02-22,21:01～22:00,0.0341,0.0300,0.0320,
調布 (Chofu),2014-02-22,20:01～21:00,0.0340,0.0291,0.0319,
調布 (Chofu),2014-02-22,19:01～20:00,0.0332,0.0296,0.0317,
調布 (Chofu),2014-02-22,18:01～19:00,0.0341,0.0300,0.0317,
調布 (Chofu),2014-02-22,17:01～18:00,0.0341,0.0300,0.0318,
調布 (Chofu),2014-02-22,16:01～17:00,0.0340,0.0297,0.0319,
調布 (Chofu),2014-02-22,15:01～16:00,0.0337,0.0292,0.0319,
調布 (Chofu),2014-02-22,14:01～15:00,0.0345,0.0290,0.0319,
調布 (Chofu),2014-02-22,13:01～14:00,0.0347,0.0292,0.0318,
調布 (Chofu),2014-02-22,12:01～13:00,0.0342,0.0297,0.0317,
調布 (Chofu),2014-02-22,11:01～12:00,0.0332,0.0298,0.0316,
調布 (Chofu),2014-02-22,10:01～11:00,0.0340,0.0295,0.0316,
調布 (Chofu),2014-02-22,09:01～10:00,0.0337,0.0294,0.0317,
調布 (Chofu),2014-02-22,08:01～09:00,0.0335,0.0286,0.0316,
調布 (Chofu),2014-02-22,07:01～08:00,0.0351,0.0302,0.0321,
調布 (Chofu),2014-02-22,06:01～07:00,0.0338,0.0300,0.0320,
調布 (Chofu),2014-02-22,05:01～06:00,0.0343,0.0304,0.0322,
調布 (Chofu),2014-02-22,04:01～05:00,0.0346,0.0298,0.0318,
調布 (Chofu),2014-02-22,03:01～04:00,0.0336,0.0296,0.0319,
調布 (Chofu),2014-02-22,02:01～03:00,0.0337,0.0304,0.0319,
調布 (Chofu),2014-02-22,01:01～02:00,0.0340,0.0299,0.0318,
調布 (Chofu),2014-02-22,00:01～01:00,0.0336,0.0301,0.0316,
調布 (Chofu),2014-02-21,23:01～24:00,0.0343,0.0288,0.0317,
調布 (Chofu),2014-02-21,22:01～23:00,0.0332,0.0299,0.0316,
調布 (Chofu),2014-02-21,21:01～22:00,0.0344,0.0296,0.0318,
調布 (Chofu),2014-02-21,20:01～21:00,0.0339,0.0294,0.0317,
調布 (Chofu),2014-02-21,19:01～20:00,0.0334,0.0298,0.0319,
調布 (Chofu),2014-02-21,18:01～19:00,0.0338,0.0302,0.0319,
調布 (Chofu),2014-02-21,17:01～18:00,0.0345,0.0301,0.0321,
調布 (Chofu),2014-02-21,16:01～17:00,0.0343,0.0300,0.0322,
調布 (Chofu),2014-02-21,15:01～16:00,0.0336,0.0297,0.0318,
調布 (Chofu),2014-02-21,14:01～15:00,0.0342,0.0303,0.0318,
調布 (Chofu),2014-02-21,13:01～14:00,0.0349,0.0301,0.0321,
調布 (Chofu),2014-02-21,12:01～13:00,0.0339,0.0303,0.0321,
調布 (Chofu),2014-02-21,11:01～12:00,0.0335,0.0298,0.0320,
調布 (Chofu),2014-02-21,10:01～11:00,0.0344,0.0290,0.0317,
調布 (Chofu),2014-02-21,09:01～10:00,0.0342,0.0296,0.0317,
調布 (Chofu),2014-02-21,08:01～09:00,0.0337,0.0301,0.0319,
調布 (Chofu),2014-02-21,07:01～08:00,0.0337,0.0296,0.0319,
調布 (Chofu),2014-02-21,06:01～07:00,0.0340,0.0301,0.0318,
調布 (Chofu),2014-02-21,05:01～06:00,0.0335,0.0294,0.0318,
調布 (Chofu),2014-02-21,04:01～05:00,0.0335,0.0297,0.0314,
調布 (Chofu),2014-02-21,03:01～04:00,0.0333,0.0297,0.0315,
調布 (Chofu),2014-02-21,02:01～03:00,0.0328,0.0296,0.0311,
調布 (Chofu),2014-02-21,01:01～02:00,0.0337,0.0286,0.0312,
調布 (Chofu),2014-02-21,00:01～01:00,0.0334,0.0289,0.0312,
調布 (Chofu),2014-02-20,23:01～24:00,0.0353,0.0292,0.0312,
調布 (Chofu),2014-02-20,22:01～23:00,0.0336,0.0292,0.0310,
調布 (Chofu),2014-02-20,21:01～22:00,0.0327,0.0295,0.0313,
調布 (Chofu),2014-02-20,20:01～21:00,0.0331,0.0293,0.0312,
調布 (Chofu),2014-02-20,19:01～20:00,0.0331,0.0291,0.0312,
調布 (Chofu),2014-02-20,18:01～19:00,0.0327,0.0285,0.0310,
調布 (Chofu),2014-02-20,17:01～18:00,0.0334,0.0290,0.0311,
調布 (Chofu),2014-02-20,16:01～17:00,0.0328,0.0284,0.0306,
調布 (Chofu),2014-02-20,15:01～16:00,0.0336,0.0287,0.0311,
調布 (Chofu),2014-02-20,14:01～15:00,0.0325,0.0281,0.0303,
調布 (Chofu),2014-02-20,13:01～14:00,0.0332,0.0288,0.0306,
調布 (Chofu),2014-02-20,12:01～13:00,0.0320,0.0291,0.0305,
調布 (Chofu),2014-02-20,11:01～12:00,0.0324,0.0284,0.0305,
調布 (Chofu),2014-02-20,10:01～11:00,0.0330,0.0280,0.0307,
調布 (Chofu),2014-02-20,09:01～10:00,0.0318,0.0280,0.0303,
調布 (Chofu),2014-02-20,08:01～09:00,0.0332,0.0286,0.0309,
調布 (Chofu),2014-02-20,07:01～08:00,0.0347,0.0289,0.0319,
調布 (Chofu),2014-02-20,06:01～07:00,0.0332,0.0287,0.0313,
調布 (Chofu),2014-02-20,05:01～06:00,0.0328,0.0279,0.0304,
調布 (Chofu),2014-02-20,04:01～05:00,0.0322,0.0288,0.0302,
調布 (Chofu),2014-02-20,03:01～04:00,0.0322,0.0284,0.0304,
調布 (Chofu),2014-02-20,02:01～03:00,0.0318,0.0282,0.0300,
調布 (Chofu),2014-02-20,01:01～02:00,0.0314,0.0283,0.0300,
調布 (Chofu),2014-02-20,00:01～01:00,0.0333,0.0279,0.0301,
調布 (Chofu),2014-02-19,23:01～24:00,0.0320,0.0283,0.0301,
調布 (Chofu),2014-02-19,22:01～23:00,0.0323,0.0285,0.0304,
調布 (Chofu),2014-02-19,21:01～22:00,0.0326,0.0285,0.0300,
調布 (Chofu),2014-02-19,20:01～21:00,0.0326,0.0274,0.0298,
調布 (Chofu),2014-02-19,19:01～20:00,0.0323,0.0286,0.0303,
調布 (Chofu),2014-02-19,18:01～19:00,0.0327,0.0286,0.0300,
調布 (Chofu),2014-02-19,17:01～18:00,0.0316,0.0283,0.0300,
調布 (Chofu),2014-02-19,16:01～17:00,0.0316,0.0284,0.0301,
調布 (Chofu),2014-02-19,15:01～16:00,0.0319,0.0278,0.0298,
調布 (Chofu),2014-02-19,14:01～15:00,0.0324,0.0277,0.0298,
調布 (Chofu),2014-02-19,13:01～14:00,0.0311,0.0275,0.0295,
調布 (Chofu),2014-02-19,12:01～13:00,0.0313,0.0278,0.0296,
調布 (Chofu),2014-02-19,11:01～12:00,0.0308,0.0274,0.0293,
調布 (Chofu),2014-02-19,10:01～11:00,0.0315,0.0274,0.0291,
調布 (Chofu),2014-02-19,09:01～10:00,0.0316,0.0274,0.0290,
調布 (Chofu),2014-02-19,08:01～09:00,0.0308,0.0272,0.0291,
調布 (Chofu),2014-02-19,07:01～08:00,0.0308,0.0266,0.0290,
調布 (Chofu),2014-02-19,06:01～07:00,0.0302,0.0273,0.0288,
調布 (Chofu),2014-02-19,05:01～06:00,0.0304,0.0264,0.0289,
調布 (Chofu),2014-02-19,04:01～05:00,0.0306,0.0268,0.0288,
調布 (Chofu),2014-02-19,03:01～04:00,0.0324,0.0265,0.0289,
調布 (Chofu),2014-02-19,02:01～03:00,0.0305,0.0266,0.0286,
調布 (Chofu),2014-02-19,01:01～02:00,0.0307,0.0273,0.0289,
調布 (Chofu),2014-02-19,00:01～01:00,0.0307,0.0269,0.0289,
調布 (Chofu),2014-02-18,23:01～24:00,0.0302,0.0264,0.0286,
調布 (Chofu),2014-02-18,22:01～23:00,0.0313,0.0270,0.0287,
調布 (Chofu),2014-02-18,21:01～22:00,0.0306,0.0272,0.0287,
調布 (Chofu),2014-02-18,20:01～21:00,0.0304,0.0264,0.0284,
調布 (Chofu),2014-02-18,19:01～20:00,0.0300,0.0266,0.0283,
調布 (Chofu),2014-02-18,18:01～19:00,0.0300,0.0258,0.0282,
調布 (Chofu),2014-02-18,17:01～18:00,0.0312,0.0263,0.0286,
調布 (Chofu),2014-02-18,16:01～17:00,0.0308,0.0265,0.0282,
調布 (Chofu),2014-02-18,15:01～16:00,0.0299,0.0265,0.0281,
調布 (Chofu),2014-02-18,14:01～15:00,0.0300,0.0256,0.0278,
調布 (Chofu),2014-02-18,13:01～14:00,0.0297,0.0260,0.0278,
調布 (Chofu),2014-02-18,12:01～13:00,0.0292,0.0254,0.0272,
調布 (Chofu),2014-02-18,11:01～12:00,0.0286,0.0258,0.0271,
調布 (Chofu),2014-02-18,10:01～11:00,0.0291,0.0246,0.0269,
調布 (Chofu),2014-02-18,09:01～10:00,0.0287,0.0250,0.0269,
調布 (Chofu),2014-02-18,08:01～09:00,0.0286,0.0255,0.0271,
調布 (Chofu),2014-02-18,07:01～08:00,0.0285,0.0251,0.0270,
調布 (Chofu),2014-02-18,06:01～07:00,0.0291,0.0247,0.0269,
調布 (Chofu),2014-02-18,05:01～06:00,0.0283,0.0245,0.0268,
調布 (Chofu),2014-02-18,04:01～05:00,0.0287,0.0246,0.0268,
調布 (Chofu),2014-02-18,03:01～04:00,0.0288,0.0243,0.0269,
調布 (Chofu),2014-02-18,02:01～03:00,0.0292,0.0250,0.0270,
調布 (Chofu),2014-02-18,01:01～02:00,0.0284,0.0255,0.0271,
調布 (Chofu),2014-02-18,00:01～01:00,0.0287,0.0256,0.0272,
調布 (Chofu),2014-02-17,23:01～24:00,0.0294,0.0250,0.0271,
調布 (Chofu),2014-02-17,22:01～23:00,0.0290,0.0256,0.0270,
調布 (Chofu),2014-02-17,21:01～22:00,0.0287,0.0253,0.0268,
調布 (Chofu),2014-02-17,20:01～21:00,0.0292,0.0249,0.0270,
調布 (Chofu),2014-02-17,19:01～20:00,0.0286,0.0256,0.0270,
調布 (Chofu),2014-02-17,18:01～19:00,0.0291,0.0250,0.0270,
調布 (Chofu),2014-02-17,17:01～18:00,0.0291,0.0249,0.0269,
調布 (Chofu),2014-02-17,16:01～17:00,0.0280,0.0239,0.0264,
調布 (Chofu),2014-02-17,15:01～16:00,0.0279,0.0240,0.0261,
調布 (Chofu),2014-02-17,14:01～15:00,0.0276,0.0235,0.0254,
調布 (Chofu),2014-02-17,13:01～14:00,0.0272,0.0232,0.0251,
調布 (Chofu),2014-02-17,12:01～13:00,0.0266,0.0228,0.0248,
調布 (Chofu),2014-02-17,11:01～12:00,0.0267,0.0230,0.0247,
調布 (Chofu),2014-02-17,10:01～11:00,0.0271,0.0233,0.0252,
調布 (Chofu),2014-02-17,09:01～10:00,0.0270,0.0237,0.0255,
調布 (Chofu),2014-02-17,08:01～09:00,0.0281,0.0246,0.0264,
調布 (Chofu),2014-02-17,07:01～08:00,0.0280,0.0246,0.0262,
調布 (Chofu),2014-02-17,06:01～07:00,0.0283,0.0237,0.0259,
調布 (Chofu),2014-02-17,05:01～06:00,0.0261,0.0233,0.0248,
調布 (Chofu),2014-02-17,04:01～05:00,0.0266,0.0231,0.0247,
調布 (Chofu),2014-02-17,03:01～04:00,0.0266,0.0225,0.0246,
調布 (Chofu),2014-02-17,02:01～03:00,0.0261,0.0228,0.0245,
調布 (Chofu),2014-02-17,01:01～02:00,0.0266,0.0222,0.0243,
調布 (Chofu),2014-02-17,00:01～01:00,0.0258,0.0227,0.0241,
